Find Starlink 11708

NORAD ID: 64238 Int'l Des: 2025-119 Owner: SPXS Country: US Constellation: starlink operational
又名: STARLINK-11708 [DTC] celestrak
LEOCIRCULAR

当前视图

正在加载3D地球...

About Starlink 11708

Starlink 11708 (NORAD 64238) is a starlink constellation satellite (v2 mini d2c) launched Jun 3, 2025 by SPXS of US. It operates in LEO, CIRCULAR orbit with a mass of 960.00 kg.

即将过境

Passes for default location (London). Set your location on the main map for personalized predictions.

高度历史

Loading altitude history...

两行轨道根数

1 64238U 25119F 26238.47557900 .00125806 00000-0 96438-3 0 9994
2 64238 43.0005 266.0587 0001638 282.5024 77.5660 15.70957793 71947
Epoch: Aug 26, 2026 • Age: 10 hours

当前状态

高度 365.0 km
远地点 / 近地点 N/A
速度 7.69 km/s
星下点 -35.68°S, 89.4°W
发射日期 Jun 3, 2025
运行时间 1.2 years
类型 internet

技术详情

分类 Payload
质量 960.00 kg
干质量 910.00 kg
总质量 960.00 kg
长度 0.30 m
直径 4.10 m
跨度 29.00 m
形状 Box + pan
制造商 SPXS
平台类型 Starlink V2MD
阶段状态 In Orbit
所有者/国家 SPXS/US

Most Searched